This is the latest recevied weather packets stored in our database for station/object NE8U. If no packets are shown the sender has not sent any weather packets the latest 10 day(s).
| Time | Temp. | Humidity | Pressure | Rain* | Wind** | Luminosity | Snow |
|---|---|---|---|---|---|---|---|
| 1777474216 | 18.33° C | 29% | 1017.9 hPa | 0 mm | - | 135 W/m² | - |
| 1777473913 | 17.78° C | 30% | 1017.9 hPa | 0 mm | - | 138 W/m² | - |
| 1777473611 | 17.78° C | 29% | 1017.8 hPa | 0 mm | - | 99 W/m² | - |
| 1777473307 | 17.22° C | 29% | 1018 hPa | 0 mm | - | 104 W/m² | - |
| 1777473003 | 16.67° C | 30% | 1017.8 hPa | 0 mm | - | 102 W/m² | - |
| 1777472699 | 16.67° C | 29% | 1017.8 hPa | 0 mm | - | 87 W/m² | - |
| 1777472396 | 16.67° C | 30% | 1017.9 hPa | 0 mm | - | 68 W/m² | - |
| 1777472093 | 16.67° C | 29% | 1017.8 hPa | 0 mm | - | 67 W/m² | - |
| 1777471788 | 16.67° C | 29% | 1017.8 hPa | 0 mm | - | 72 W/m² | - |
| 1777471485 | 16.67° C | 28% | 1017.7 hPa | 0 mm | - | 59 W/m² | - |
| 1777471182 | 16.67° C | 28% | 1017.8 hPa | 0 mm | - | 55 W/m² | - |
| 1777470879 | 16.67° C | 27% | 1017.6 hPa | 0 mm | - | 59 W/m² | - |
| 1777470576 | 16.67° C | 27% | 1017.8 hPa | 0 mm | - | 61 W/m² | - |
| 1777470271 | 16.11° C | 27% | 1017.6 hPa | 0 mm | - | 54 W/m² | - |
| 1777469968 | 16.11° C | 27% | 1017.4 hPa | 0 mm | - | 49 W/m² | - |
| 1777469664 | 16.11° C | 26% | 1017.2 hPa | 0 mm | - | 42 W/m² | - |
| 1777469359 | 16.11° C | 26% | 1017.2 hPa | 0 mm | - | 35 W/m² | - |
| 1777469055 | 16.11° C | 26% | 1017.3 hPa | 0 mm | - | 26 W/m² | - |
| 1777468750 | 16.11° C | 26% | 1017.1 hPa | 0 mm | - | 28 W/m² | - |
| 1777468446 | 15.56° C | 26% | 1017.6 hPa | 0 mm | - | 29 W/m² | - |
| 1777468143 | 15.56° C | 26% | 1017.4 hPa | 0 mm | - | 21 W/m² | - |
| 1777467839 | 15.56° C | 26% | 1017.2 hPa | 0 mm | - | 12 W/m² | - |
| 1777467535 | 15.56° C | 26% | 1017.4 hPa | 0 mm | - | 11 W/m² | - |
| 1777467230 | 16.11° C | 26% | 1017.2 hPa | 0 mm | - | 6 W/m² | - |
| 1777466927 | 16.11° C | 25% | 1017.1 hPa | 0 mm | - | 3 W/m² | - |
* Rain latest hour (hover to see other rain measurements)
** Current wind speed in m/s (hover to see current wind gust speed)